Shelbyville, IN

12:33 AM EST on November 21, 2019 (GMT -0500)
Shelbyville Municipal

Weather History for KGEZ - September, 2019

Change the Weather History Date:

Sunday, September 8, 2019

  Actual Average Record
Temperature  
Mean Temperature 67 °F 68 °F  
Max Temperature 77 °F 81 °F 93 °F (2002)
Min Temperature 56 °F 56 °F 45 °F (2017)
Degree Days  
Heating Degree Days 0 1  
Month to date heating degree days 0 5  
Since 1 July heating degree days 0 11  
Cooling Degree Days 2 4  
Month to date cooling degree days 37 41  
Year to date cooling degree days 1098 847  
Growing Degree Days 15 (Base 50)    
Moisture  
Dew Point 58 °F    
Average Humidity 76    
Maximum Humidity 93    
Minimum Humidity 58    
Precipitation  
Precipitation 0.00 in 0.11 in 1.17 in (2007)
Month to date precipitation 0.52 0.82  
Year to date precipitation 31.98 31.10  
Sea Level Pressure  
Sea Level Pressure 30.07 in    
Wind  
Wind Speed 3 mph (East)    
Max Wind Speed 10 mph    
Max Gust Speed 14 mph    
Visibility 9 miles    
Events      
T = Trace of Precipitation, MM = Missing Value Source: NWS Daily Summary

Daily Weather History Graph

Daily Weather History Graph

Search for Another Location

Airport or City:

Astronomy

Sep. 08, 2019 Rise Set
Actual Time 7:17 AM EDT 8:03 PM EDT
Civil Twilight 6:50 AM EDT 8:30 PM EDT
Nautical Twilight 6:18 AM EDT 9:02 PM EDT
Astronomical Twilight 5:44 AM EDT 9:36 PM EDT
Moon 5:10 PM EDT (9/8) 1:57 AM EDT (9/8)
Length of Visible Light 13h 40m
Length of Day
12h 45m
Waxing Gibbous, 75% of the Moon is Illuminated
Sep 8
Waxing Gibbous
Sep 14
Full
Sep 21
Last Quarter
Sep 28
New
Oct 5
First Quarter

Hourly Weather History & Observations

Time (EDT) Temp. Dew Point Humidity Pressure Visibility Wind Dir Wind Speed Gust Speed Precip Events Conditions
12:53 AM 59.0 °F 55.0 °F 87% 30.04 in 10.0 mi Calm Calm - N/A   Clear
1:53 AM 57.9 °F 55.0 °F 90% 30.04 in 10.0 mi Calm Calm - N/A   Clear
2:53 AM 55.9 °F 53.1 °F 90% 30.03 in 10.0 mi Calm Calm - N/A   Clear
3:09 AM 55.9 °F 53.1 °F 90% 30.04 in 2.0 mi East 3.5 mph - N/A   Clear
3:18 AM 55.9 °F 53.1 °F 90% 30.04 in 8.0 mi Calm Calm - N/A   Clear
3:53 AM 55.9 °F 53.1 °F 90% 30.03 in 4.0 mi ESE 3.5 mph - N/A   Clear
4:53 AM 57.9 °F 55.9 °F 93% 30.03 in 10.0 mi Calm Calm - N/A   Clear
5:53 AM 60.1 °F 57.0 °F 90% 30.05 in 10.0 mi Calm Calm - N/A   Overcast
6:53 AM 60.1 °F 57.0 °F 90% 30.06 in 10.0 mi Calm Calm - N/A   Mostly Cloudy
7:53 AM 61.0 °F 57.9 °F 90% 30.08 in 10.0 mi Calm Calm - N/A   Partly Cloudy
8:53 AM 64.0 °F 60.1 °F 87% 30.09 in 10.0 mi Calm Calm - N/A   Clear
9:53 AM 68.0 °F 59.0 °F 73% 30.11 in 10.0 mi Calm Calm - N/A   Clear
10:53 AM 71.1 °F 59.0 °F 66% 30.07 in 10.0 mi East 4.6 mph - N/A   Clear
11:53 AM 71.1 °F 60.1 °F 68% 30.06 in 10.0 mi ESE 4.6 mph - N/A   Partly Cloudy
1:53 PM 73.9 °F 60.1 °F 62% 30.12 in 10.0 mi SW 6.9 mph - N/A   Scattered Clouds
2:53 PM 75.9 °F 59.0 °F 56% 30.08 in 10.0 mi Calm Calm - N/A   Scattered Clouds
3:53 PM 73.9 °F 59.0 °F 59% 30.07 in 10.0 mi Calm Calm - N/A   Mostly Cloudy
4:53 PM 75.0 °F 60.1 °F 60% 30.06 in 10.0 mi ESE 4.6 mph - N/A   Partly Cloudy
5:53 PM 75.0 °F 61.0 °F 62% 30.04 in 10.0 mi NE 6.9 mph - N/A   Scattered Clouds
6:53 PM 73.9 °F 62.1 °F 66% 30.07 in 10.0 mi Calm Calm - N/A   Partly Cloudy
7:53 PM 72.0 °F 62.1 °F 71% 30.08 in 10.0 mi NNE 3.5 mph - N/A   Overcast
8:53 PM 69.1 °F 62.1 °F 78% 30.09 in 10.0 mi NE 4.6 mph - N/A   Mostly Cloudy
9:53 PM 68.0 °F 62.1 °F 81% 30.11 in 10.0 mi ENE 4.6 mph - N/A   Overcast
10:53 PM 66.9 °F 62.1 °F 84% 30.12 in 10.0 mi ENE 5.8 mph - N/A   Overcast
11:53 PM 66.0 °F 62.1 °F 87% 30.12 in 10.0 mi ENE 5.8 mph - N/A   Overcast